sat.trackr.live / text

‹ back to catalog

DEIMOS-1

NORAD 35681 · 2009-041A

PAYLOAD ACTIVE UNKNOWN

§ Identity

Operator
Country
SPN
Launch date
2009-07-29
Launch site
TYMSC
Launch vehicle
Mass (kg)
RCS (m²)
0.23

Purposes: earth_obs

External: N2YO · Heavens-Above · Gunter

§ Orbital elements

Epoch: 2026-09-20T05:01:18.874272Z

Period
97.61 min
Inclination
97.7539°
Eccentricity
0.0000498
Mean motion
14.75318797 rev/d
Perigee alt
643.8 km
Apogee alt
644.5 km
Semi-major
7,022.3 km
B*
7.8043e-5
RAAN
56.3961°
Arg perigee
137.6978°
Mean anomaly
222.4270°
Rev number
92,089

§ Raw data

DEIMOS-11 35681U 09041A   26263.20924623  .00000481  00000+0  78043-4 0  99922 35681  97.7539  56.3961 0000498 137.6978 222.4270 14.75318797920896

JSON: /api/v1/satellites/35681 · /tle

For live sub-satellite position, see the globe view (requires WebGL).

§ Visibility from observer

Set your observer location to see the next 7 days of passes ≥ 10°. The values pass through the URL so the page stays shareable.

No JS? Fill the form by hand. The geolocation button needs JavaScript.

§ Radio — SatNOGS DB

ModeDescriptionDownlinkUplink
FM S-band telemetry 2.240 GHz

1 transmitter · refreshed weekly from db.satnogs.org